Year,Month,Day,Hour,Minute,Value (Times are PST for temperature in C)
2013,03,28,09,37,8.40
2013,03,28,09,38,8.40
2013,03,28,09,39,8.50
2013,03,28,09,40,8.50
2013,03,28,09,41,8.50
2013,03,28,09,42,8.60
2013,03,28,09,43,8.60
2013,03,28,09,44,8.60
2013,03,28,09,45,8.70
2013,03,28,09,46,8.70
2013,03,28,09,47,8.70
2013,03,28,09,48,8.70
2013,03,28,09,49,8.80
2013,03,28,09,50,8.80
2013,03,28,09,51,8.90
2013,03,28,09,52,8.90
2013,03,28,09,53,9.00
2013,03,28,09,54,9.00
2013,03,28,09,55,9.10
2013,03,28,09,56,9.20
2013,03,28,09,57,9.20
2013,03,28,09,58,9.20
2013,03,28,09,59,9.20
2013,03,28,10,00,9.30
2013,03,28,10,01,9.40
2013,03,28,10,02,9.40
2013,03,28,10,03,9.50
2013,03,28,10,04,9.60
2013,03,28,10,05,9.60
2013,03,28,10,06,9.60
2013,03,28,10,07,9.60
2013,03,28,10,08,9.70
2013,03,28,10,09,9.70
2013,03,28,10,10,9.70
2013,03,28,10,11,9.70
2013,03,28,10,12,9.70
2013,03,28,10,13,9.70
2013,03,28,10,14,9.70
2013,03,28,10,15,9.70
2013,03,28,10,16,9.70
2013,03,28,10,17,9.80
2013,03,28,10,18,9.90
2013,03,28,10,19,9.90
2013,03,28,10,20,9.90
2013,03,28,10,21,9.90
2013,03,28,10,22,10.10
2013,03,28,10,23,10.10
2013,03,28,10,24,10.10
2013,03,28,10,25,10.10
2013,03,28,10,26,10.10
2013,03,28,10,27,10.10
2013,03,28,10,28,10.10
2013,03,28,10,29,10.10
2013,03,28,10,30,10.10
2013,03,28,10,31,10.20
2013,03,28,10,32,10.20
2013,03,28,10,33,10.20
2013,03,28,10,34,10.30
2013,03,28,10,35,10.30
2013,03,28,10,36,10.40
2013,03,28,10,37,10.40
2013,03,28,10,38,10.40
2013,03,28,10,39,10.40
2013,03,28,10,40,10.50
2013,03,28,10,41,10.60
2013,03,28,10,42,10.60
2013,03,28,10,43,10.60
2013,03,28,10,44,10.70
2013,03,28,10,45,10.70
2013,03,28,10,46,10.80
2013,03,28,10,47,10.70
2013,03,28,10,48,10.80
2013,03,28,10,49,10.80
2013,03,28,10,50,10.90
2013,03,28,10,51,10.90
2013,03,28,10,52,10.90
2013,03,28,10,53,10.90
2013,03,28,10,54,11.00
2013,03,28,10,55,11.10
2013,03,28,10,56,11.20
2013,03,28,10,57,11.20
2013,03,28,10,58,11.30
2013,03,28,10,59,11.40
2013,03,28,11,00,11.60
2013,03,28,11,01,11.60
2013,03,28,11,02,11.70
2013,03,28,11,03,11.80
2013,03,28,11,04,11.80
2013,03,28,11,05,11.80
2013,03,28,11,06,11.90
2013,03,28,11,07,11.90
2013,03,28,11,08,12.00
2013,03,28,11,09,12.00
2013,03,28,11,10,12.10
2013,03,28,11,11,12.10
2013,03,28,11,12,12.00
2013,03,28,11,13,12.00
2013,03,28,11,14,11.90
2013,03,28,11,15,11.90
2013,03,28,11,16,11.90
2013,03,28,11,17,11.80
2013,03,28,11,18,11.80
2013,03,28,11,19,11.80
2013,03,28,11,20,11.80
2013,03,28,11,21,11.80
2013,03,28,11,22,11.80
2013,03,28,11,23,11.80
2013,03,28,11,24,11.80
2013,03,28,11,25,11.80
2013,03,28,11,26,11.70
2013,03,28,11,27,11.60
2013,03,28,11,28,11.60
2013,03,28,11,29,11.50
2013,03,28,11,30,11.40
2013,03,28,11,31,11.30
2013,03,28,11,32,11.20
2013,03,28,11,33,11.20
2013,03,28,11,34,11.20
2013,03,28,11,35,11.20
2013,03,28,11,36,11.10
2013,03,28,11,37,11.10
2013,03,28,11,38,11.10
2013,03,28,11,39,11.10
2013,03,28,11,40,11.10
2013,03,28,11,41,11.10
2013,03,28,11,42,11.00
2013,03,28,11,43,10.90
2013,03,28,11,44,10.90
2013,03,28,11,45,10.90
2013,03,28,11,46,10.90
2013,03,28,11,47,10.90
2013,03,28,11,48,10.90
2013,03,28,11,49,10.90
2013,03,28,11,50,10.90
2013,03,28,11,51,10.90
2013,03,28,11,52,10.90
2013,03,28,11,53,10.80
2013,03,28,11,54,10.90
2013,03,28,11,55,10.90
2013,03,28,11,56,10.90
2013,03,28,11,57,10.90
2013,03,28,11,58,10.90
2013,03,28,11,59,10.90
2013,03,28,12,00,10.90
2013,03,28,12,01,10.90
2013,03,28,12,02,11.00
2013,03,28,12,03,11.10
2013,03,28,12,04,11.10
2013,03,28,12,05,11.10
2013,03,28,12,06,11.10
2013,03,28,12,07,11.20
2013,03,28,12,08,11.20
2013,03,28,12,09,11.10
2013,03,28,12,10,11.10
2013,03,28,12,11,11.10
2013,03,28,12,12,11.10
2013,03,28,12,13,11.10
2013,03,28,12,14,11.10
2013,03,28,12,15,11.20
2013,03,28,12,16,11.20
2013,03,28,12,17,11.20
2013,03,28,12,18,11.20
2013,03,28,12,19,11.20
2013,03,28,12,20,11.20
2013,03,28,12,21,11.20
2013,03,28,12,22,11.30
2013,03,28,12,23,11.30
2013,03,28,12,24,11.40
2013,03,28,12,25,11.30
2013,03,28,12,26,11.20
2013,03,28,12,27,11.20
2013,03,28,12,28,11.20
2013,03,28,12,29,11.20
2013,03,28,12,30,11.30
2013,03,28,12,31,11.30
2013,03,28,12,32,11.30
2013,03,28,12,33,11.30
2013,03,28,12,34,11.30
2013,03,28,12,35,11.30
2013,03,28,12,36,11.30
2013,03,28,12,37,11.30
2013,03,28,12,38,11.30
2013,03,28,12,39,11.40
2013,03,28,12,40,11.30
2013,03,28,12,41,11.40
2013,03,28,12,42,11.40
2013,03,28,12,43,11.40
2013,03,28,12,44,11.40
2013,03,28,12,45,11.40
2013,03,28,12,46,11.40
2013,03,28,12,47,11.40
2013,03,28,12,48,11.50
2013,03,28,12,49,11.60
2013,03,28,12,50,11.60
2013,03,28,12,51,11.60
2013,03,28,12,52,11.70
2013,03,28,12,53,11.70
2013,03,28,12,54,11.70
2013,03,28,12,55,11.80
2013,03,28,12,56,11.80
2013,03,28,12,57,11.80
2013,03,28,12,58,11.90
2013,03,28,12,59,12.00
2013,03,28,13,00,12.00
2013,03,28,13,01,12.00
2013,03,28,13,02,12.00
2013,03,28,13,03,11.90
2013,03,28,13,04,11.90
2013,03,28,13,05,12.00
2013,03,28,13,06,12.10
2013,03,28,13,07,12.20
2013,03,28,13,08,12.30
2013,03,28,13,09,12.30
2013,03,28,13,10,12.40
2013,03,28,13,11,12.50
2013,03,28,13,12,12.50
2013,03,28,13,13,12.60
2013,03,28,13,14,12.60
2013,03,28,13,15,12.70
2013,03,28,13,16,12.80
2013,03,28,13,17,12.90
2013,03,28,13,18,13.00
2013,03,28,13,19,13.10
2013,03,28,13,20,13.20
2013,03,28,13,21,13.30
2013,03,28,13,22,13.40
2013,03,28,13,23,13.40
2013,03,28,13,24,13.40
2013,03,28,13,25,13.40
2013,03,28,13,26,13.30
2013,03,28,13,27,13.20
2013,03,28,13,28,13.20
2013,03,28,13,29,13.20
2013,03,28,13,30,13.20
2013,03,28,13,31,13.10
2013,03,28,13,32,12.90
2013,03,28,13,33,12.80
2013,03,28,13,34,12.80
2013,03,28,13,35,12.80
2013,03,28,13,36,12.80
2013,03,28,13,37,12.80
2013,03,28,13,38,12.80
2013,03,28,13,39,12.80
2013,03,28,13,40,12.80
2013,03,28,13,41,12.80
2013,03,28,13,42,12.80
2013,03,28,13,43,12.80
2013,03,28,13,44,12.80
2013,03,28,13,45,12.80
2013,03,28,13,46,12.90
2013,03,28,13,47,13.00
2013,03,28,13,48,13.10
2013,03,28,13,49,13.10
2013,03,28,13,50,13.20
2013,03,28,13,51,13.30
2013,03,28,13,52,13.30
2013,03,28,13,53,13.30
2013,03,28,13,54,13.30
2013,03,28,13,55,13.10
2013,03,28,13,56,13.10
2013,03,28,13,57,13.10
2013,03,28,13,58,13.00
2013,03,28,13,59,12.90
2013,03,28,14,00,12.80
2013,03,28,14,01,12.80
2013,03,28,14,02,12.70
2013,03,28,14,03,12.60
2013,03,28,14,04,12.50
2013,03,28,14,05,12.50
2013,03,28,14,06,12.40
2013,03,28,14,07,12.50
2013,03,28,14,08,12.50
2013,03,28,14,09,12.60
2013,03,28,14,10,12.70
2013,03,28,14,11,12.70
2013,03,28,14,12,12.80
2013,03,28,14,13,12.80
2013,03,28,14,14,12.80
2013,03,28,14,15,12.80
2013,03,28,14,16,12.80
2013,03,28,14,17,12.80
2013,03,28,14,18,12.80
2013,03,28,14,19,12.80
2013,03,28,14,20,12.90
2013,03,28,14,21,12.80
2013,03,28,14,22,12.80
2013,03,28,14,23,12.80
2013,03,28,14,24,12.80
2013,03,28,14,25,12.80
2013,03,28,14,26,12.80
2013,03,28,14,27,12.90
2013,03,28,14,28,12.90
2013,03,28,14,29,13.00
2013,03,28,14,30,13.00
2013,03,28,14,31,13.10
2013,03,28,14,32,13.10
2013,03,28,14,33,13.20
2013,03,28,14,34,13.20
2013,03,28,14,35,13.30
2013,03,28,14,36,13.30
2013,03,28,14,37,13.30
2013,03,28,14,38,13.30
2013,03,28,14,39,13.40
2013,03,28,14,40,13.40
2013,03,28,14,41,13.40
2013,03,28,14,42,13.40
2013,03,28,14,43,13.40
2013,03,28,14,44,13.40
2013,03,28,14,45,13.40
2013,03,28,14,46,13.40
2013,03,28,14,47,13.40
2013,03,28,14,48,13.40
2013,03,28,14,49,13.50
2013,03,28,14,50,13.50
2013,03,28,14,51,13.60
2013,03,28,14,52,13.70
2013,03,28,14,53,13.70
2013,03,28,14,54,13.70
2013,03,28,14,55,13.70
2013,03,28,14,56,13.70
2013,03,28,14,57,13.70
2013,03,28,14,58,13.70
2013,03,28,14,59,13.80
2013,03,28,15,00,13.80
2013,03,28,15,01,13.70
2013,03,28,15,02,13.80
2013,03,28,15,03,13.80
2013,03,28,15,04,13.70
2013,03,28,15,05,13.70
2013,03,28,15,06,13.70
2013,03,28,15,07,13.60
2013,03,28,15,08,13.60
2013,03,28,15,09,13.60
2013,03,28,15,10,13.60
2013,03,28,15,11,13.70
2013,03,28,15,12,13.60
2013,03,28,15,13,13.60
2013,03,28,15,14,13.60
2013,03,28,15,15,13.70
2013,03,28,15,16,13.70
2013,03,28,15,17,13.80
2013,03,28,15,18,13.90
2013,03,28,15,19,14.00
2013,03,28,15,20,14.00
2013,03,28,15,21,14.00
2013,03,28,15,22,14.10
2013,03,28,15,23,14.10
2013,03,28,15,24,14.20
2013,03,28,15,25,14.20
2013,03,28,15,26,14.20
2013,03,28,15,27,14.30
2013,03,28,15,28,14.40
2013,03,28,15,29,14.50
2013,03,28,15,30,14.60
2013,03,28,15,31,14.70
2013,03,28,15,32,14.70
2013,03,28,15,33,14.70
2013,03,28,15,34,14.80
2013,03,28,15,35,14.80
2013,03,28,15,36,14.80
2013,03,28,15,37,14.80
2013,03,28,15,38,14.80
2013,03,28,15,39,14.70
2013,03,28,15,40,14.70
2013,03,28,15,41,14.70
2013,03,28,15,42,14.80
2013,03,28,15,43,14.80
2013,03,28,15,44,14.70
2013,03,28,15,45,14.50
2013,03,28,15,46,14.40
2013,03,28,15,47,14.30
2013,03,28,15,48,14.20
2013,03,28,15,49,14.20
2013,03,28,15,50,14.20
2013,03,28,15,51,14.30
2013,03,28,15,52,14.30
2013,03,28,15,53,14.40
2013,03,28,15,54,14.40
2013,03,28,15,55,14.50
2013,03,28,15,56,14.40
2013,03,28,15,57,14.40
2013,03,28,15,58,14.40
2013,03,28,15,59,14.30
2013,03,28,16,00,14.30
2013,03,28,16,01,14.40
2013,03,28,16,02,14.40
2013,03,28,16,03,14.40
2013,03,28,16,04,14.40
2013,03,28,16,05,14.40
2013,03,28,16,06,14.40
2013,03,28,16,07,14.40
2013,03,28,16,08,14.40
2013,03,28,16,09,14.40
2013,03,28,16,10,14.40
2013,03,28,16,11,14.40
2013,03,28,16,12,14.40
2013,03,28,16,13,14.40
2013,03,28,16,14,14.40
2013,03,28,16,15,14.40
2013,03,28,16,16,14.40
2013,03,28,16,17,14.30
2013,03,28,16,18,14.20
2013,03,28,16,19,14.10
2013,03,28,16,20,14.00
2013,03,28,16,21,14.00
2013,03,28,16,22,13.90
2013,03,28,16,23,13.80
2013,03,28,16,24,13.70
2013,03,28,16,25,13.70
2013,03,28,16,26,13.70
2013,03,28,16,27,13.70
2013,03,28,16,28,13.70
2013,03,28,16,29,13.70
2013,03,28,16,30,13.70
2013,03,28,16,31,13.70
2013,03,28,16,32,13.70
2013,03,28,16,33,13.70
2013,03,28,16,34,13.70
2013,03,28,16,35,13.80
2013,03,28,16,36,13.80
2013,03,28,16,37,13.90
2013,03,28,16,38,13.90
2013,03,28,16,39,13.90
2013,03,28,16,40,14.00
2013,03,28,16,41,14.10
2013,03,28,16,42,14.20
2013,03,28,16,43,14.20
2013,03,28,16,44,14.20
2013,03,28,16,45,14.20
2013,03,28,16,46,14.20
2013,03,28,16,47,14.00
2013,03,28,16,48,14.00
2013,03,28,16,49,13.90
2013,03,28,16,50,13.90
2013,03,28,16,51,13.90
2013,03,28,16,52,13.80
2013,03,28,16,53,13.80
2013,03,28,16,54,13.70
2013,03,28,16,55,13.70
2013,03,28,16,56,13.60
2013,03,28,16,57,13.60
2013,03,28,16,58,13.50
2013,03,28,16,59,13.40
2013,03,28,17,00,13.30
2013,03,28,17,01,13.30
2013,03,28,17,02,13.30
2013,03,28,17,03,13.20
2013,03,28,17,04,13.20
2013,03,28,17,05,13.10
2013,03,28,17,06,13.00
2013,03,28,17,07,12.90
2013,03,28,17,08,12.80
2013,03,28,17,09,12.80
2013,03,28,17,10,12.70
2013,03,28,17,11,12.70
2013,03,28,17,12,12.60
2013,03,28,17,13,12.60
2013,03,28,17,14,12.50
2013,03,28,17,15,12.50
2013,03,28,17,16,12.50
2013,03,28,17,17,12.50
2013,03,28,17,18,12.40
2013,03,28,17,19,12.40
2013,03,28,17,20,12.40
2013,03,28,17,21,12.30
2013,03,28,17,22,12.40
2013,03,28,17,23,12.40
2013,03,28,17,24,12.40
2013,03,28,17,25,12.40
2013,03,28,17,26,12.30
2013,03,28,17,27,12.30
2013,03,28,17,28,12.30
2013,03,28,17,29,12.30
2013,03,28,17,30,12.30
2013,03,28,17,31,12.20
2013,03,28,17,32,12.20
2013,03,28,17,33,12.20
2013,03,28,17,34,12.20
2013,03,28,17,35,12.20
2013,03,28,17,36,12.10
2013,03,28,17,37,12.10
2013,03,28,17,38,12.10
2013,03,28,17,39,12.00
2013,03,28,17,40,12.00
2013,03,28,17,41,12.00
2013,03,28,17,42,12.00
2013,03,28,17,43,11.90
2013,03,28,17,44,11.90
2013,03,28,17,45,11.80
2013,03,28,17,46,11.80
2013,03,28,17,47,11.80
2013,03,28,17,48,11.80
2013,03,28,17,49,11.70
2013,03,28,17,50,11.70
2013,03,28,17,51,11.60
2013,03,28,17,52,11.60
2013,03,28,17,53,11.60
2013,03,28,17,54,11.60
2013,03,28,17,55,11.60
2013,03,28,17,56,11.60
2013,03,28,17,57,11.60
2013,03,28,17,58,11.60
2013,03,28,17,59,11.60
2013,03,28,18,00,11.60
2013,03,28,18,01,11.60
2013,03,28,18,02,11.60
2013,03,28,18,03,11.60
2013,03,28,18,04,11.60
2013,03,28,18,05,11.60
2013,03,28,18,06,11.60
2013,03,28,18,07,11.60
2013,03,28,18,08,11.60
2013,03,28,18,09,11.50
2013,03,28,18,10,11.40
2013,03,28,18,11,11.40
2013,03,28,18,12,11.40
2013,03,28,18,13,11.40
2013,03,28,18,14,11.40
2013,03,28,18,15,11.40
2013,03,28,18,16,11.40
2013,03,28,18,17,11.40
2013,03,28,18,18,11.40
2013,03,28,18,19,11.40
